Location: G�ppingen
(48.7089°N, 9.6563°E)
Time: 14:34:10
(UTC+02:00)

ISS - Visible Passes

Search period start: 24 July 2017 00:00
Search period end: 03 August 2017 00:00
Orbit: 400 x 408 km, 51.6° (Epoch: 24 July)

Date Brightness Start Highest point End Pass type
(mag) Time Alt. Az. Time Alt. Az. Time Alt. Az.
24 Jul -3.0 00:59:50 10° W 01:03:02 50° N 01:06:14 10° ENE visible
24 Jul -3.4 02:36:32 10° WNW 02:39:47 62° NNE 02:43:01 10° E visible
24 Jul -3.3 04:13:07 10° WNW 04:16:10 37° SSW 04:19:13 10° SE visible
24 Jul -3.5 22:31:07 10° SW 22:34:13 41° SSE 22:37:19 10° ENE visible
25 Jul -3.3 00:07:25 10° W 00:10:39 59° NNW 00:13:52 10° ENE visible
25 Jul -3.0 01:44:12 10° WNW 01:47:25 52° N 01:50:37 10° E visible
25 Jul -3.9 03:20:44 10° WNW 03:23:57 59° SSW 03:27:10 10° SE visible
25 Jul -1.9 04:58:34 10° WSW 04:59:53 12° SW 05:01:12 10° SSW visible
25 Jul -3.7 23:15:01 10° WSW 23:18:17 76° NNW 23:21:33 10° ENE visible
26 Jul -2.9 00:51:49 10° WNW 00:55:00 48° N 00:56:44 23° ENE visible
26 Jul -1.6 02:28:23 10° WNW 02:29:16 17° WNW 02:29:16 17° WNW visible
26 Jul -4.0 22:22:42 10° WSW 22:25:57 76° SSE 22:29:13 10° ENE visible
26 Jul -2.9 23:59:24 10° W 00:02:34 49° N 00:05:20 13° ENE visible
27 Jul -2.3 01:36:03 10° WNW 01:37:56 31° WNW 01:37:56 31° WNW visible
27 Jul -3.1 23:06:57 10° W 23:10:09 55° N 23:13:22 10° ENE visible
28 Jul -3.2 00:43:42 10° WNW 00:46:55 54° N 00:46:57 54° NNE visible
28 Jul -3.5 22:14:29 10° W 22:17:45 69° NNW 22:20:59 10° ENE visible
28 Jul -2.9 23:51:18 10° WNW 23:54:28 48° N 23:56:05 24° ENE visible
29 Jul -1.5 01:27:50 10° WNW 01:28:42 17° WNW 01:28:42 17° WNW visible
29 Jul -2.9 22:58:50 10° WNW 23:02:01 48° N 23:05:11 10° ENE visible
30 Jul -2.9 00:35:27 10° WNW 00:37:53 46° NW 00:37:53 46° NW visible
30 Jul -3.0 22:06:21 10° W 22:09:32 52° N 22:12:45 10° ENE visible
30 Jul -3.3 23:43:04 10° WNW 23:46:17 58° N 23:47:07 42° ENE visible
31 Jul -0.9 01:19:37 10° WNW 01:19:44 11° WNW 01:19:44 11° WNW visible
31 Jul -3.0 22:50:38 10° WNW 22:53:50 50° N 22:56:21 15° E visible
01 Aug -2.3 00:27:10 10° WNW 00:28:58 30° W 00:28:58 30° W visible
01 Aug -2.9 21:58:09 10° WNW 22:01:20 47° N 22:04:30 10° ENE visible
01 Aug -3.9 23:34:44 10° WNW 23:38:01 83° NNE 23:38:14 75° E visible
02 Aug -3.5 22:42:19 10° WNW 22:45:34 62° NNE 22:47:30 22° E visible
